Find Starlink 37699

NORAD ID: 100279 Int'l Des: 2026-183 Owner: SPXS Country: US Constellation: starlink operational

Aktuelle Ansicht

3D-Globus wird geladen...

About Starlink 37699

Starlink 37699 (NORAD 100279) is a starlink constellation satellite launched Aug 11, 2026 by SPXS of US. with a mass of 575.00 kg.

Nächste Überflüge

Passes for default location (London). Set your location on the main map for personalized predictions.

Höhenverlauf

Loading altitude history...

Zweizeiliger Elementsatz

1 A0279U 26183H 26254.59207931 -.01039919 00000-0 -84032-2 0 9996
2 A0279 53.1593 301.3642 0003060 13.9834 346.1270 15.72672913 4901
Epoch: 11. Sept. 2026 • Age: 216 hours

Aktueller Status

Höhe 391.8 km
Apogäum / Perigäum N/A
Geschwindigkeit 7.68 km/s
Subsatellitenpunkt 47.24°N, 92.11°E
Startdatum 11. Aug. 2026
Alter 0.1 years
Typ internet

Technische Details

Klassifizierung Payload
Masse 575.00 kg
Trockenmasse 530.00 kg
Länge 0.30 m
Spannweite 29.00 m
Form ? Box + pan
Hersteller SPXS
Bus-Typ Starlink V2MO
Phasenstatus In Orbit
Besitzer/Staat SPXS/US

Most Searched